Location: Madrid
(40.4000°N, 3.6830°W)
Time: 20:13:12
(UTC+02:00)

ISS - Pass Details

Date: 19 September 2020
Orbit: 419 x 421 km, 51.6° (Epoch: 30 September)

Event Time Altitude Azimuth Distance (km) Brightness Sun altitude
Rises 22:22:49 0° 267° (W) 2,360 1.1 -24.2°
Reaches altitude 10° 22:25:13 10° 283° (WNW) 1,498 0.1 -24.6°
Maximum altitude 22:27:57 23° 338° (NNW) 956 -1.5 -25.1°
Enters shadow 22:28:09 22° 343° (NNW) 960 -1.6 -25.1°
